SB KEPS @ AMSAT $ORB26266.1 2Line Orbital Elements 26266.AMSAT QST de W1STR AMSAT Orbital Elements for Amateur Satellites in TLE Format From Orbital Analysis Office New England Sci-Tech STEM Education Center Natick MA September 23, 2026 To all radio amateurs These element sets describe the orbits of various satellites in use by the amateur radio community. For details see: www.amsat.org/keplerian-elements-formats/ A daily update of element sets is available at: www.amsat.org/tle/daily-bulletin.txt or without bulletin text: www.amsat.org/tle/dailytle.txt AO-07 1 07530U 74089B 26265.01669086 -.00000034 00000-0 77152-4 0 9994 2 07530 101.9919 279.2751 0011984 307.5739 110.6698 12.53699643372659 UO-11 1 14781U 84021B 26265.47110456 .00000928 00000-0 99561-4 0 9998 2 14781 97.8185 230.0345 0006567 213.1311 146.9497 14.91006158271627 LO-19 1 20442U 90005G 26265.02002684 .00000053 00000-0 35557-4 0 9996 2 20442 98.8818 289.4783 0010486 283.3296 76.6719 14.34145078916277 AO-27 1 22825U 93061C 26265.19328644 .00000032 00000-0 29276-4 0 9991 2 22825 98.6787 332.5254 0008601 168.4715 191.6666 14.30962427720874 FO-29 1 24278U 96046B 26265.53332365 .00000000 00000-0 35989-4 0 9997 2 24278 98.5161 101.0580 0349455 203.6597 154.8133 13.53278514486330 GO-32 1 25397U 98043D 26265.56109829 .00000036 00000-0 35696-4 0 9993 2 25397 99.0161 260.8164 0000639 351.9939 8.1229 14.24443787465199 ISS 1 25544U 98067A 26265.27126732 .00007132 00000-0 13643-3 0 9994 2 25544 51.6312 179.6046 0004766 167.6102 192.5004 15.49224498586805 NO-44 1 26931U 01043C 26265.52273886 .00000046 00000-0 48226-4 0 9997 2 26931 67.0531 352.5113 0005864 273.1609 86.8822 14.31985584304386 SO-50 1 27607U 02058C 26265.18448791 .00000558 00000-0 83642-4 0 9995 2 27607 64.5525 188.8355 0071556 244.6308 114.7378 14.83222800278840 CO-55 1 27844U 03031E 26265.53955190 .00000181 00000-0 97174-4 0 9992 2 27844 98.6774 272.8917 0008389 262.2987 97.7240 14.24384398205538 RS-22 1 27939U 03042A 26265.66082406 .00000725 00000-0 11951-3 0 9996 2 27939 98.3482 92.8042 0010598 325.5168 127.9842 14.73609290229900 CO-65 1 32785U 08021C 26265.60398350 .00003041 00000-0 19004-3 0 9996 2 32785 97.8386 249.1635 0010309 62.6885 297.5392 15.10217017999892 CO-66 1 32791U 08021J 26265.50658039 .00013542 00000-0 39125-3 0 9998 2 32791 97.7570 268.3111 0002050 26.3041 333.8306 15.35783185 2200 RS-30 1 32953U 08025A 26265.55743119 .00000020 00000-0 71403-4 0 9994 2 32953 82.5013 294.8802 0020730 99.1591 261.1835 12.43183046831798 SRMSAT 1 37841U 11058D 26265.14961861 .00000351 00000-0 46391-4 0 9991 2 37841 19.9708 192.5647 0011814 190.1101 301.8361 14.11593751771533 ZACUBE-1 1 39417U 13066B 26265.43824777 .00003305 00000-0 25405-3 0 9993 2 39417 97.8161 228.2913 0038694 287.2544 72.4448 15.01861170695321 Delfi-N3xt 1 39428U 13066N 26265.25500117 .00004047 00000-0 34707-3 0 9993 2 39428 97.8288 185.5232 0071174 242.9065 116.4883 14.96144733689134 GOMX-1 1 39430U 13066Q 26265.61932877 .00001185 00000-0 18236-3 0 9997 2 39430 97.6436 99.9412 0129061 123.8920 237.4642 14.69715408684229 LO-74 1 39440U 13066AA 26265.57594945 .00002250 00000-0 20811-3 0 9999 2 39440 97.8992 215.0476 0058405 64.8924 295.8341 14.94305688691530 AO-73 1 39444U 13066AE 26265.46302710 .00004640 00000-0 28088-3 0 9997 2 39444 97.8393 239.0853 0033780 230.5454 129.2785 15.10665668694343 DTUSAT-2 1 40030U 14033W 26265.62146261 .00004804 00000-0 25329-3 0 9997 2 40030 98.0924 269.6500 0006025 260.2148 99.8403 15.16092268667445 LILACSAT-2 1 40908U 15049K 26265.56724324 .00013086 00000-0 20023-3 0 9992 2 40908 97.4556 306.2743 0004707 246.8651 113.2106 15.54499339610861 Lapan A3 1 41603U 16040E 26265.62103598 .00002425 00000-0 76783-4 0 9998 2 41603 97.1573 258.6452 0011098 35.0405 325.1567 15.33635156569744 CAS-2T 1 41847U 16066G 26265.19636770 .00000897 00000-0 13460-3 0 9994 2 41847 98.3747 339.8122 0340940 194.9664 164.1241 14.44853993518802 TechnoSat 1 42829U 17042E 26265.44021772 .00002626 00000-0 18640-3 0 9995 2 42829 97.4410 59.5070 0018668 119.8544 240.4541 15.05438435501339 AO-91 1 43017U 17073E 26265.53782497 .00005614 00000-0 23946-3 0 9992 2 43017 97.4545 130.7642 0146843 352.7891 7.1227 15.14006330480111 S-Net D 1 43186U 18014G 26265.55265845 .00003606 00000-0 18351-3 0 9993 2 43186 97.5249 169.7279 0009399 49.0116 311.1929 15.17430696473521 S-Net B 1 43187U 18014H 26265.17043165 .00003198 00000-0 16326-3 0 9997 2 43187 97.5254 169.3372 0009957 45.8873 314.3178 15.17396189473464 S-Net A 1 43188U 18014J 26265.55100027 .00003553 00000-0 18078-3 0 9992 2 43188 97.5266 169.9432 0009833 45.4699 314.7336 15.17439914473527 S-Net C 1 43189U 18014K 26265.50462296 .00003332 00000-0 16996-3 0 9999 2 43189 97.5283 169.9866 0010988 38.1518 322.0491 15.17389037472062 Ten-Koh 1 43677U 18084G 26265.51542750 .00001042 00000-0 81778-4 0 9990 2 43677 98.0711 101.9966 0009904 146.3950 213.7904 15.03258057430781 PO-101 1 43678U 18084H 26265.58994753 .00000971 00000-0 81669-4 0 9991 2 43678 98.1172 106.0860 0012183 202.2559 157.8137 15.00744071430827 QO-100 1 43700U 18090A 26265.56339821 .00000000 00000-0 00000-0 0 9990 2 43700 0.0262 165.0076 0001211 15.9781 49.0346 1.00270360 28653 MinXSS-2 1 43758U 18099A 26265.49222120 .00036077 00000-0 56102-3 0 9997 2 43758 97.4445 345.0705 0005585 257.8779 102.1849 15.53831803429203 AO-95 1 43770U 18099N 26265.41366081 .00007350 00000-0 26717-3 0 9999 2 43770 97.4288 325.3740 0008250 15.1474 345.0011 15.28535689428068 SNUSat 2 1 43782U 18099AA 26265.40647138 .00004987 00000-0 21418-3 0 9992 2 43782 97.3963 317.3303 0008697 321.5775 38.4841 15.23114777427822 SnugLite 1 43784U 18099AC 26265.12235752 .00006960 00000-0 25004-3 0 9996 2 43784 97.3772 318.5207 0001464 337.4468 22.6707 15.28969325428120 ITASat 1 1 43786U 18099AE 26265.54419348 .00004415 00000-0 20723-3 0 9995 2 43786 97.3934 315.1297 0012506 19.9641 340.2081 15.20089251427696 EAGLET 1 1 43790U 18099AJ 26265.12370218 .00002160 00000-0 12394-3 0 9996 2 43790 97.4138 312.2120 0011339 19.0689 341.0965 15.13545533426991 ESEO 1 43792U 18099AL 26265.55806253 .00000827 00000-0 63147-4 0 9999 2 43792 97.3907 298.7524 0012071 10.2345 349.9125 15.04485407426446 JO-97 1 43803U 18099AX 26265.08987871 .00011700 00000-0 33070-3 0 9999 2 43803 97.4038 328.4073 0003829 283.8344 76.2474 15.36488973428493 Suomi 100 1 43804U 18099AY 26265.42749870 .00008535 00000-0 29245-3 0 9994 2 43804 97.4089 325.5447 0007950 298.7770 61.2672 15.30421373428286 ISAT 1 43879U 18111D 26264.79202454 .00774757 30158-3 11826-2 0 9993 2 43879 97.5695 209.3864 0010269 144.5257 215.6708 16.04382360426400 UWE-4 1 43880U 18111E 26264.78778592 .00033261 00000-0 54911-3 0 9996 2 43880 97.5816 198.0535 0005450 3.3232 356.8056 15.52185618425735 Prox-1 1 44339U 19036A 26264.98861442 .00010005 00000-0 91987-3 0 9997 2 44339 23.9934 186.5711 0005528 81.8951 278.2176 14.92630077387949 Taurus 1 1 44530U 19059C 26265.61512149 .00003440 00000-0 54483-3 0 9998 2 44530 98.6497 76.6136 0008491 11.7888 348.3515 14.72939068372982 TO-108 1 44881U 19093C 26265.57648395 .00000643 00000-0 78290-4 0 9998 2 44881 97.7448 335.3941 0014752 122.6379 237.6262 14.86642567365880 RS-44 1 44909U 19096E 26265.49480778 .00000036 00000-0 10696-3 0 9993 2 44909 82.5166 275.0437 0216332 276.9113 80.7424 12.79749443314799 SALSAT 1 46495U 20068K 26265.50109124 .00005282 00000-0 17906-3 0 9990 2 46495 97.8890 274.6032 0008312 330.4588 29.6181 15.31003317330243 CSS (TIANHE-1) 1 48274U 21035A 26265.20259022 .00014071 00000-0 17173-3 0 9994 2 48274 41.4679 92.9305 0002423 298.0346 62.0248 15.60181132308314 TeikyoSat 4 1 49396U 21102B 26265.55552367 .00001295 00000-0 83874-4 0 9997 2 49396 97.3625 291.2456 0010875 324.5860 35.4646 15.09790061267419 Z-Sat 1 49399U 21102E 26265.58705731 .00002039 00000-0 10072-3 0 9994 2 49399 97.3262 297.9582 0014551 266.9921 92.9648 15.18888278268222 KOSEN 1 1 49402U 21102H 26265.55583418 .00004792 00000-0 17773-3 0 9995 2 49402 97.3105 305.8558 0012243 216.2387 143.8025 15.28009083268882 HO-113 1 50466U 21131B 26265.58595720 .00000272 00000-0 97564-4 0 9997 2 50466 98.4968 357.4439 0004591 151.8123 208.3316 14.41429924249145 SNUGLITE 2 1 52899U 22065F 26265.12356418 .00000603 00000-0 12288-3 0 9992 2 52899 98.2344 49.8704 0008666 81.7625 278.4560 14.64494470225185 UmKA 1 (RS40S) 1 57172U 23091G 26265.57262471 .00004251 00000-0 19034-3 0 9994 2 57172 97.4952 323.9037 0013638 134.8728 225.3618 15.21737821178810 CubeBel-2 (EU11S) 1 57175U 23091K 26265.55153312 .00008702 00000-0 29062-3 0 9995 2 57175 97.4955 329.7332 0010597 126.0280 234.1944 15.31225471179191 RS-38S 1 57189U 23091Z 26265.57978962 .00012560 00000-0 32889-3 0 9996 2 57189 97.5004 337.1680 0007950 85.7495 274.4658 15.38823443179659 SONATE-2 1 59112U 24043Q 26265.42028868 .00046914 00000-0 44844-3 0 9991 2 59112 97.5618 62.4200 0005367 199.2639 160.8419 15.66579597143074 GRBBeta 1 60237U 24128C 26265.43045093 .00002124 00000-0 15371-3 0 9993 2 60237 61.9883 234.9303 0026343 156.1161 204.1160 15.07208141120925 Curium One 1 60242U 24128H 26265.57720456 .00004904 00000-0 28136-3 0 9998 2 60242 61.9772 220.5034 0025550 150.0523 210.2041 15.13699403121192 ROBUSTA-3A 1 60243U 24128J 26265.59876427 .00004216 00000-0 24974-3 0 9993 2 60243 61.9850 223.4540 0027477 147.3714 212.9087 15.12778120121153 CatSat 1 60246U 24125J 26265.57010553 .00101252 00000-0 72689-3 0 9995 2 60246 97.1936 120.2361 0015350 169.2561 190.9034 15.73188159122621 AO-123 1 61781U 24199AY 26265.60409401 .00005567 00000-0 15605-3 0 9996 2 61781 97.2837 133.4014 0012240 325.6959 34.3494 15.36933897148885 LASARsat 1 62391U 24247Q 26264.88106215 .00033279 00000-0 53318-3 0 9998 2 62391 44.9720 76.3897 0009919 243.9896 115.9975 15.52514070 98316 CroCube 1 62394U 24247T 26263.89520826 .00038917 00000-0 55900-3 0 9992 2 62394 44.9695 77.3471 0010500 248.1402 111.8375 15.55439305 98215 JINJUSat 1B 1 63210U 25052A 26264.69606325 .00011866 00000-0 33776-3 0 9994 2 63210 97.3861 161.7026 0005267 94.7775 265.4070 15.36257753 84909 NUSHSAT 1 1 63211U 25052B 26264.69099963 .00016074 00000-0 41101-3 0 9996 2 63211 97.3834 162.6486 0005026 97.1591 263.0226 15.39509166 84971 TEVEL2-4 1 63213U 25052D 26264.65098456 .00014347 00000-0 38880-3 0 9991 2 63213 97.3755 161.3481 0004581 106.6572 253.5176 15.37745731 84927 TEVEL2-5 1 63214U 25052E 26264.94431626 .00013937 00000-0 38051-3 0 9998 2 63214 97.3754 161.5598 0004467 106.8935 253.2800 15.37523825 84969 TEVEL2-6 1 63215U 25052F 26265.28419379 .00013809 00000-0 37729-3 0 9997 2 63215 97.3758 161.8862 0004382 106.8668 253.3057 15.37503577 85014 TEVEL2-1 1 63217U 25052H 26265.15529565 .00012909 00000-0 36043-3 0 9992 2 63217 97.3730 161.2566 0004402 116.1059 244.0639 15.36844659 84977 TEVEL2-3 1 63218U 25052J 26264.95037275 .00013062 00000-0 36382-3 0 9999 2 63218 97.3735 161.0882 0004133 115.2494 244.9179 15.36917753 84947 TEVEL2-2 1 63219U 25052K 26264.69907106 .00013054 00000-0 36441-3 0 9997 2 63219 97.3731 160.8036 0004388 117.4159 242.7532 15.36848461 84900 TEVEL2-9 1 63237U 25052AD 26265.52612231 .00012239 00000-0 36675-3 0 9995 2 63237 97.3794 160.7785 0007047 138.3212 221.8569 15.34623121 84940 TEVEL2-7 1 63238U 25052AE 26265.52282646 .00011786 00000-0 35742-3 0 9999 2 63238 97.3796 160.6449 0006964 140.0874 220.0882 15.34252841 84935 TEVEL2-8 1 63239U 25052AF 26264.94488798 .00011402 00000-0 34613-3 0 9992 2 63239 97.3793 160.0419 0007019 139.9279 220.2483 15.34229165 84844 SPIRONE 1 66657U 25274H 26265.25448505 .00001009 00000-0 10018-3 0 9997 2 66657 97.7486 193.1771 0013354 55.2116 305.0358 14.93863159 44717 K-HERO 1 66660U 25274L 26265.03200058 .00001395 00000-0 13506-3 0 9999 2 66660 97.7495 193.1888 0015330 59.2774 300.9954 14.94258274 44690 SNUGLITE-III DURI 1 66661U 25274M 26265.55409935 .00001507 00000-0 14551-3 0 9998 2 66661 97.7492 193.7242 0015926 58.7233 301.5544 14.94265101 44771 SAKHACUBE-CHOLBON 1 67290U 25313AU 26264.96640407 .00006540 00000-0 25367-3 0 9995 2 67290 97.3861 338.8533 0009259 24.2139 335.9533 15.26416887 40732 RS95S (QMR-KWT-2) 1 67291U 25313AV 26265.17024551 .00009404 00000-0 34089-3 0 9999 2 67291 97.3853 339.4843 0008463 20.6995 339.4586 15.28542390 40795 Ten-Koh2 1 68261U 25241B 26265.49834834 .00004511 00000-0 19197-3 0 9992 2 68261 51.6560 216.1036 0008159 109.6795 250.5064 15.24938362 29755 JACK-002 1 68417U 26067B 26265.39921804 .00004387 00000-0 20433-3 0 9991 2 68417 97.4675 222.9164 0001017 14.6303 345.4962 15.20430081 26711 DISCO 2 1 68431U 26067R 26265.43285498 .00006024 00000-0 27994-3 0 9993 2 68431 97.4706 222.9522 0003362 51.5315 308.6222 15.20351633 26713 HADES-SA (SpinnyONE) 1 68446U 26067AG 26265.61425551 .00014049 00000-0 61602-3 0 9995 2 68446 97.4498 222.7137 0009036 93.9639 266.2630 15.22056945 26734 PARUS-6U1 1 68456U 26067AS 26265.41961511 .00004072 00000-0 20126-3 0 9996 2 68456 97.4661 222.4043 0007459 86.9544 273.2543 15.18388546 26689 SAL-E 1 68458U 26067AU 26265.58617512 .00005237 00000-0 25360-3 0 9994 2 68458 97.4584 222.4682 0007757 93.2012 267.0110 15.18965135 26716 FSI-SAT 2 1 68792U 26088A 26265.34990526 .00003287 00000-0 22022-3 0 9996 2 68792 97.5203 52.2966 0015288 131.9042 228.3492 15.07487396 22929 OrigamiSat 2 1 68795U 26088D 26265.39416497 .00008269 00000-0 50185-3 0 9990 2 68795 97.5185 52.8448 0015701 104.6228 255.6744 15.10670647 22969 ARICA 2 1 68796U 26088E 26265.38846300 .00002392 00000-0 15447-3 0 9993 2 68796 97.5194 52.6863 0016855 104.3451 255.9651 15.09084041 22959 WASEDA-SAT-ZERO-II 1 68797U 26088F 26265.36130875 .00004762 00000-0 29955-3 0 9997 2 68797 97.5182 52.7148 0016343 104.1424 256.1622 15.09578096 22953 MANGARO-II-Piscus 1 68798U 26088G 26265.35401995 .00003035 00000-0 19316-3 0 9993 2 68798 97.5202 52.7473 0020194 107.0677 253.2766 15.09370721 22951 CO-128 1 69912U 26156AV 26265.52551871 .00000987 00000-0 10552-3 0 9992 2 69912 97.7469 164.5953 0001090 220.5876 139.5261 14.90959049 11508 MARINA 1 69920U 26156BD 26264.65956299 .00001406 00000-0 14350-3 0 9994 2 69920 97.7438 163.8554 0005854 260.8291 99.2265 14.92182626 11385 IO-86 1 40931U 26199.45381863 .00000000 00000-0 77536-4 0 07 2 40931 6.0006 322.6653 0012733 338.8432 273.6875 14.79294310 03 LILIUM-4 1 71922C 26067AC 26089.50133053 -.00014632 00000+0 -74472-3 0 04 2 71922 97.4497 49.1617 0004341 5.9603 355.7042 15.16896692 16 /EX